Find CERISE

NORAD ID: 23606 Int'l Des: 1995-033 Owner: CNES/DGA Country: F operational
LEOCIRCULARRETROGRADE

Live Position

Loading 3D Globe...

About CERISE

Description loading...

Upcoming Passes

Passes for default location (London). Set your location on the main map for personalized predictions.

Altitude History

Loading altitude history...

Two-Line Element Set

1 23606U 95033B 26104.22017633 .00008451 00000-0 26498-3 0 9994
2 23606 98.3214 313.1483 0007046 97.3670 262.8371 15.33348059670089
Epoch: Apr 14, 2026 • Age: 11 hours

Current Status

Altitude 477.3 km
Velocity 7.62 km/s
Sub-Earth Point -24.08°S, 127.59°W
Launch Date Jul 7, 1995
Age 30.7 years
Type other

Technical Details

Classification Payload
Mass 50.00 kg
Dry Mass 50.00 kg
Total Mass 50.00 kg
Length 0.60 m
Diameter 0.40 m
Span 6.50 m
Shape Box + Ant + 2 Pan
Manufacturer SSTL/AESPC
Bus Type UoSAT
Phase Status In Orbit
Owner/State CNES/DGA/F

Most Searched